Wind_Speed
16 21 21 22 17 19 24 27 24 17 20 17 18 20 14 15 15 10 21 19 14 11 6 5 6 9 10 11 9 9 7 3 2 3 6 9 12 15 18 20 20 21 21 22
20 26 27 18 18 21 24 22 26 20 27 16 20 23 17 22 21 14 16 18 11 8 4 5 5 5 7 8 4 3 5 8 11 11 9 11 11 12 16 18 16 17 16 15
28 24 25 22 19 22 25 20 25 25 29 18 22 25 27 21 27 26 18 19 15 14 12 8 6 4 3 5 5 6 7 8 10 12 16 18 17 15 15 16 13 13 12 15
26 23 29 27 30 25 26 19 15 17 32 29 33 18 33 26 27 31 24 23 18 23 21 15 13 11 9 9 9 8 6 5 6 11 19 24 26 23 18 18 15 11 14 13
32 28 32 29 25 20 22 20 15 23 21 26 32 14 25 29 29 29 28 26 24 24 25 18 18 16 13 12 11 10 8 4 6 13 17 22 26 28 24 19 13 13 14 14
27 25 28 31 22 25 17 17 16 19 24 13 14 25 18 35 34 27 33 31 29 27 28 24 18 19 17 16 14 11 7 4 3 8 11 17 24 28 28 22 18 16 18 19
29 33 30 25 25 26 20 18 17 5 10 7 24 26 21 29 26 20 28 38 32 34 30 28 25 24 21 19 17 13 8 6 4 4 7 14 22 28 30 28 23 21 22 24
28 30 33 28 31 30 25 28 10 5 4 14 32 22 11 21 22 13 18 25 29 38 36 32 30 28 25 22 21 18 13 10 9 9 11 15 20 26 31 31 29 25 24 25
28 33 25 28 27 26 29 33 21 22 25 16 11 21 19 15 18 22 24 21 26 39 41 36 33 30 28 27 24 23 23 22 19 15 13 14 17 23 29 31 32 31 26 24
35 28 30 26 23 31 25 30 21 23 2 5 8 17 15 28 23 22 19 16 25 28 40 38 36 33 31 30 28 28 27 27 27 28 19 17 16 19 25 29 33 34 28 25
38 35 28 26 29 30 17 27 21 25 22 6 3 2 4 26 18 14 14 12 13 23 31 33 32 31 31 31 30 30 30 30 31 28 27 21 20 19 22 27 29 32 30 26
38 28 34 33 28 35 32 25 27 16 6 7 3 3 13 19 19 18 18 17 14 11 16 24 32 32 33 34 33 32 30 28 28 28 31 25 21 21 23 27 30 34 32 27
40 38 34 25 34 34 35 34 33 20 18 16 6 8 15 17 17 18 18 15 11 8 7 12 30 32 31 32 30 31 30 27 26 29 31 28 23 22 25 28 32 34 31 28
38 35 23 23 22 34 34 35 28 27 23 21 22 14 22 18 20 17 20 17 9 11 13 14 15 26 31 28 25 20 23 26 25 29 31 30 23 22 24 28 32 32 29 24
36 41 32 25 19 15 29 29 32 27 27 25 23 15 31 17 21 22 14 11 15 12 16 17 19 27 28 29 28 26 28 27 26 30 30 27 22 21 24 27 32 30 27 23
38 29 24 18 24 20 19 22 33 31 32 32 32 29 28 29 32 23 20 24 25 18 12 17 27 28 30 30 31 29 32 36 30 34 29 24 24 21 23 28 31 27 24 25
46 32 28 14 16 12 17 15 18 23 36 33 34 32 33 30 23 22 26 24 18 12 12 19 25 21 29 32 33 32 37 36 32 34 31 23 22 21 24 30 28 24 23 25
36 26 24 16 19 7 18 16 17 20 6 9 16 20 16 28 25 21 18 13 13 9 7 10 13 29 22 26 32 33 37 31 30 34 28 23 20 20 26 27 26 25 26 26
22 26 12 19 27 15 21 23 27 14 7 2 5 23 21 28 19 16 11 5 9 10 9 16 14 13 23 27 27 30 33 31 32 32 21 19 16 20 25 28 27 27 30 27
17 18 15 6 5 0 24 23 14 10 8 5 9 18 17 21 17 12 10 9 11 12 17 22 18 18 16 21 28 28 27 27 31 25 18 16 18 23 27 28 30 31 31 25
17 19 14 14 5 14 17 8 9 17 18 10 9 12 16 16 19 14 5 7 16 23 26 27 20 16 15 23 25 25 23 24 20 21 20 19 21 23 27 30 35 32 30 31
29 17 12 12 9 8 17 9 9 17 16 24 16 19 29 16 14 11 11 17 17 22 22 24 24 19 15 17 22 25 22 20 20 22 22 19 21 25 32 31 32 35 33 36
1 4 6 15 16 16 19 11 17 9 9 11 16 18 21 21 23 24 21 21 20 19 23 24 26 18 10 17 22 24 25 27 27 22 25 22 15 28 27 34 30 27 36 39
14 8 13 6 12 14 15 18 20 18 11 4 8 14 17 14 16 21 23 25 28 24 22 24 25 23 21 26 30 31 30 37 33 10 22 7 14 28 32 35 34 33 34 37
6 6 7 4 7 8 9 7 12 23 26 12 9 11 12 14 18 20 19 26 23 17 25 27 25 26 27 29 33 33 34 37 25 32 25 23 32 21 28 31 32 33 27 33
7 6 8 14 13 14 16 14 7 4 12 20 16 10 9 13 12 17 19 19 16 16 20 25 24 25 28 30 33 32 33 32 21 26 25 23 23 21 23 27 28 27 28 27
Wind_Direction
188 219 220 204 206 218 211 192 199 225 190 207 186 184 169 174 189 190 191 214 221 227 238 233 242 233 216 207 213 267 252 224 271 296 294 290 282 282 285 287 291 286 291 296
198 222 196 197 233 229 227 212 206 214 197 216 182 190 168 177 207 250 220 218 190 196 226 245 214 189 174 166 160 92 89 86 80 56 30 6 339 306 291 288 283 287 294 293
207 222 203 226 239 232 243 240 221 194 183 180 188 183 181 193 210 215 246 237 211 218 228 209 194 199 202 159 154 138 125 104 79 53 29 13 359 333 316 305 297 290 275 286
217 209 220 237 246 234 242 249 244 182 165 183 188 186 201 221 194 209 223 228 227 223 233 232 201 205 207 188 180 168 147 118 67 37 23 14 8 359 346 337 325 304 293 302
219 217 220 232 240 237 233 239 253 243 204 206 203 197 217 205 194 205 219 228 229 236 239 241 220 209 202 198 189 182 167 118 38 23 16 6 4 0 354 349 336 307 309 300
223 225 223 227 236 240 250 234 226 245 256 245 220 210 208 187 194 207 213 224 230 235 241 244 243 229 221 199 191 194 173 134 53 29 7 353 354 357 359 353 344 329 319 318
223 228 227 234 233 229 238 221 234 240 228 234 256 256 248 209 215 242 204 215 228 230 238 245 247 242 243 222 205 203 194 206 241 301 331 330 343 351 358 2 352 341 333 330
230 231 226 219 219 218 214 217 208 195 199 243 248 250 204 211 213 215 206 219 232 226 233 241 246 250 256 249 234 224 226 238 251 275 310 321 336 340 348 355 356 346 339 331
222 235 228 230 207 210 211 219 210 233 237 248 267 200 247 216 211 204 204 213 218 223 225 236 241 248 259 261 260 247 242 255 262 268 286 302 325 334 341 349 350 350 340 334
231 231 231 227 206 214 233 206 207 244 221 286 263 201 172 175 169 175 193 213 212 219 220 231 238 246 257 261 265 264 258 258 264 269 270 283 300 322 335 339 340 342 341 336
233 243 242 227 198 213 205 193 210 232 247 203 267 154 213 190 173 182 194 209 210 211 222 237 246 256 264 262 265 269 264 264 263 277 266 274 288 305 325 328 330 336 338 335
230 235 248 213 203 207 214 211 215 217 224 282 266 235 186 190 182 177 181 183 188 195 219 233 248 252 251 255 261 271 267 271 269 277 262 266 281 296 310 321 328 336 337 334
222 230 244 246 206 204 206 214 220 216 235 260 271 143 168 169 183 189 179 189 200 207 215 236 238 247 252 265 270 272 266 266 271 272 262 262 272 288 304 319 327 333 332 330
216 228 230 228 228 198 203 210 212 207 211 230 245 212 172 173 177 203 188 186 218 213 236 239 239 247 250 263 269 263 258 262 266 273 265 260 266 284 303 315 321 328 327 328
212 228 233 230 229 226 213 212 219 229 228 226 228 246 198 196 199 184 207 244 237 244 248 250 250 252 255 256 261 254 257 257 264 278 272 265 264 286 302 314 321 323 325 335
206 213 211 203 222 244 247 229 228 232 237 241 258 257 237 252 227 218 239 223 225 250 275 247 253 252 256 258 263 269 261 254 260 273 282 272 262 286 306 318 320 318 321 336
205 200 194 191 217 244 275 269 242 254 230 232 238 251 245 222 206 191 203 220 231 268 277 244 244 245 251 258 266 264 261 255 262 274 279 272 269 292 311 316 316 316 332 333
191 177 179 181 205 246 256 264 258 278 315 191 214 203 194 179 178 196 222 228 237 262 310 322 278 242 250 251 257 261 265 263 267 271 273 256 268 301 314 316 323 327 329 323
182 183 177 187 209 224 232 234 256 243 196 263 195 171 198 211 207 195 219 220 216 243 280 322 305 274 254 255 259 261 258 259 262 264 263 243 284 308 313 322 324 319 319 312
222 198 204 184 165 116 231 257 226 205 185 202 158 143 142 178 189 170 160 192 232 261 293 316 301 275 267 266 258 261 259 257 259 260 217 250 284 302 316 320 312 309 323 302
237 219 209 201 178 224 242 279 277 261 246 259 242 143 146 163 144 138 168 296 309 306 310 313 314 293 259 260 260 254 254 259 247 211 230 256 287 314 317 310 311 316 310 300
226 213 197 193 192 259 279 217 196 147 193 214 213 232 231 212 195 210 261 289 300 304 292 293 298 295 284 257 259 257 254 255 225 232 254 282 307 314 315 306 302 306 300 296
308 211 238 209 162 155 224 185 134 165 173 169 196 200 216 230 246 259 269 255 290 300 261 267 282 284 252 236 245 242 233 225 215 231 268 266 296 308 302 300 292 290 282 297
111 196 218 192 187 186 208 238 193 173 165 345 268 215 217 240 249 260 275 290 293 291 243 249 256 254 224 225 232 234 234 233 220 234 249 87 307 300 297 289 279 280 285 291
87 209 201 145 98 205 215 205 243 253 253 226 268 292 296 306 308 306 306 301 300 262 239 242 244 233 229 233 241 242 236 296 234 270 293 280 312 298 286 279 273 282 295 307
59 56 226 177 157 171 161 145 158 235 231 242 246 252 293 308 312 308 312 304 281 249 243 247 240 252 247 249 247 247 248 262 295 305 317 309 285 279 271 276 284 295 300 302
Height
3158 3161 3160 3161 3163 3166 3170 3172 3177 3184 3182 3184 3185 3187 3189 3193 3196 3199 3200 3198 3198 3200 3199 3201 3202 3203 3204 3206 3208 3209 3209 3209 3210 3210 3209 3209 3209 3209 3208 3206 3205 3206 3204 3203
3158 3156 3158 3160 3162 3165 3166 3170 3170 3172 3179 3180 3183 3185 3187 3189 3193 3195 3196 3196 3195 3197 3197 3199 3201 3202 3204 3205 3206 3206 3207 3207 3208 3209 3210 3209 3207 3205 3204 3202 3201 3201 3201 3200
3151 3156 3157 3158 3159 3163 3163 3167 3167 3167 3173 3179 3183 3187 3185 3185 3186 3191 3192 3195 3196 3195 3195 3198 3199 3200 3201 3204 3205 3206 3207 3208 3208 3209 3209 3207 3204 3201 3200 3198 3198 3198 3198 3196
3151 3153 3155 3156 3157 3160 3160 3163 3164 3168 3164 3176 3175 3179 3181 3181 3184 3187 3189 3191 3193 3193 3193 3195 3197 3198 3200 3202 3204 3205 3206 3207 3208 3207 3205 3203 3201 3199 3197 3195 3194 3193 3192 3193
3145 3147 3150 3152 3153 3156 3159 3161 3162 3163 3167 3166 3167 3170 3168 3178 3180 3185 3188 3188 3190 3189 3191 3193 3196 3197 3199 3200 3202 3204 3205 3206 3205 3204 3204 3203 3202 3200 3196 3194 3192 3190 3189 3189
3141 3144 3146 3149 3151 3152 3156 3158 3161 3161 3161 3161 3162 3164 3165 3168 3172 3175 3174 3184 3186 3186 3187 3189 3193 3195 3196 3198 3200 3202 3203 3203 3203 3203 3204 3204 3203 3200 3196 3193 3191 3189 3187 3186
3137 3136 3140 3144 3146 3150 3152 3155 3157 3159 3159 3157 3158 3160 3159 3161 3165 3168 3171 3176 3178 3179 3181 3184 3185 3187 3190 3194 3196 3198 3199 3200 3201 3202 3203 3203 3201 3199 3196 3192 3188 3186 3184 3181
3130 3132 3132 3136 3140 3144 3147 3150 3151 3157 3158 3154 3152 3152 3151 3155 3159 3164 3168 3171 3175 3175 3176 3179 3181 3183 3185 3189 3192 3194 3196 3197 3198 3199 3199 3198 3196 3195 3193 3190 3188 3185 3182 3178
3126 3127 3128 3131 3134 3140 3143 3144 3149 3151 3151 3151 3145 3145 3149 3151 3156 3161 3164 3168 3172 3173 3173 3174 3178 3179 3181 3184 3187 3191 3193 3193 3194 3195 3195 3196 3194 3191 3190 3188 3186 3183 3180 3177
3119 3125 3123 3127 3131 3134 3137 3141 3146 3146 3150 3152 3145 3142 3143 3146 3150 3155 3160 3164 3165 3167 3169 3172 3174 3177 3178 3180 3183 3186 3188 3189 3190 3191 3191 3192 3192 3191 3188 3185 3183 3181 3177 3173
3114 3121 3118 3122 3122 3127 3132 3133 3139 3144 3145 3146 3146 3144 3144 3145 3149 3153 3157 3159 3160 3164 3167 3170 3171 3174 3175 3176 3178 3180 3182 3184 3185 3186 3187 3186 3186 3186 3185 3184 3181 3178 3173 3170
3106 3112 3112 3115 3117 3123 3127 3129 3134 3136 3139 3140 3141 3142 3142 3145 3147 3150 3153 3157 3161 3163 3166 3167 3166 3169 3171 3171 3173 3174 3177 3178 3180 3180 3181 3181 3180 3180 3179 3178 3175 3170 3166 3163
3100 3105 3109 3111 3114 3115 3120 3125 3128 3131 3135 3137 3140 3144 3143 3144 3147 3149 3152 3155 3158 3162 3165 3164 3161 3162 3164 3164 3167 3169 3171 3173 3175 3174 3175 3175 3176 3175 3174 3172 3168 3164 3162 3160
3094 3097 3100 3103 3105 3111 3116 3120 3122 3125 3129 3132 3136 3139 3141 3142 3144 3146 3149 3153 3155 3157 3159 3158 3156 3157 3160 3161 3161 3163 3165 3167 3170 3169 3169 3170 3172 3172 3170 3168 3165 3161 3158 3156
3087 3090 3094 3098 3101 3104 3110 3114 3118 3120 3124 3127 3131 3131 3132 3136 3140 3141 3144 3149 3151 3151 3152 3153 3153 3151 3153 3155 3155 3157 3158 3159 3162 3162 3163 3165 3166 3166 3164 3163 3159 3156 3153 3151
3080 3083 3088 3092 3096 3102 3107 3110 3115 3116 3119 3121 3122 3126 3124 3128 3130 3134 3140 3143 3145 3147 3148 3148 3147 3146 3145 3147 3148 3149 3148 3148 3151 3154 3157 3158 3159 3160 3158 3156 3153 3150 3149 3146
3071 3075 3081 3087 3093 3098 3101 3104 3109 3112 3110 3111 3114 3116 3119 3121 3125 3128 3133 3136 3140 3143 3143 3142 3142 3141 3139 3141 3141 3143 3143 3144 3147 3145 3149 3150 3152 3152 3151 3149 3147 3145 3143 3140
3064 3070 3077 3085 3093 3096 3097 3102 3105 3106 3104 3102 3104 3109 3113 3117 3122 3127 3130 3133 3134 3137 3137 3136 3135 3134 3133 3135 3136 3138 3136 3140 3140 3139 3143 3145 3147 3146 3145 3143 3141 3138 3137 3135
3066 3067 3074 3080 3087 3093 3097 3102 3102 3103 3103 3103 3101 3103 3104 3114 3119 3122 3124 3127 3128 3129 3133 3131 3131 3129 3128 3129 3132 3133 3133 3135 3135 3135 3135 3142 3142 3140 3138 3136 3134 3133 3131 3130
3068 3068 3075 3080 3085 3090 3097 3098 3097 3097 3099 3102 3101 3105 3110 3114 3114 3117 3121 3123 3124 3125 3126 3125 3125 3124 3124 3124 3126 3126 3128 3130 3129 3130 3134 3135 3133 3131 3129 3128 3125 3124 3123 3123
3066 3068 3072 3076 3083 3086 3090 3097 3089 3100 3101 3100 3102 3102 3110 3114 3113 3114 3115 3117 3117 3118 3117 3118 3119 3119 3119 3118 3120 3123 3125 3124 3125 3127 3127 3127 3126 3125 3124 3122 3120 3117 3116 3115
3068 3069 3067 3074 3081 3085 3090 3094 3093 3094 3090 3098 3099 3099 3102 3107 3109 3109 3111 3113 3114 3112 3111 3110 3111 3114 3114 3114 3114 3116 3119 3120 3121 3122 3122 3120 3118 3116 3115 3115 3114 3111 3109 3107
3056 3063 3070 3080 3077 3083 3091 3086 3083 3089 3091 3094 3096 3098 3100 3100 3101 3102 3103 3109 3109 3107 3107 3105 3105 3107 3108 3107 3110 3110 3109 3111 3106 3115 3109 3108 3106 3111 3109 3107 3106 3105 3102 3099
3058 3068 3076 3071 3073 3076 3081 3081 3084 3082 3084 3090 3095 3095 3097 3095 3095 3097 3099 3100 3101 3102 3103 3100 3097 3097 3101 3101 3100 3100 3102 3098 3094 3078 3097 3076 3103 3109 3106 3101 3100 3096 3096 3094
3058 3064 3061 3062 3065 3074 3080 3078 3081 3084 3085 3077 3102 3093 3092 3092 3093 3094 3095 3094 3094 3095 3096 3093 3093 3094 3097 3097 3097 3096 3097 3094 3086 3097 3097 3096 3099 3097 3096 3094 3093 3091 3089 3087
3057 3059 3058 3060 3065 3066 3082 3081 3082 3082 3087 3092 3095 3093 3091 3091 3092 3089 3088 3089 3090 3091 3093 3092 3092 3092 3091 3091 3091 3090 3089 3090 3091 3087 3085 3089 3094 3088 3086 3086 3085 3083 3081 3077